Printer-friendly version

IAU Minor Planet Center

Minor Planet Center

MPEC 2006-S05 : 2006 RG7

The following Minor Planet Electronic Circular may be linked-to from your own Web pages, but must not otherwise be redistributed electronically.


Read MPEC 2006-S04 Read MPEC 2006-S06


M.P.E.C. 2006-S05                                Issued 2006 Sept. 16, 10:36 UT

     The Minor Planet Electronic Circulars contain information on unusual
         minor planets and routine data on comets.  They are published
   on behalf of Commission 20 of the International Astronomical Union by the
          Minor Planet Center, Smithsonian Astrophysical Observatory,
                          Cambridge, MA 02138, U.S.A.

                  Supported in part by the Brinson Foundation
                  Supported in part by the TABASGO Foundation
             Prepared using the Tamkin Foundation Computer Network

                              MPC@CFA.HARVARD.EDU
          URL http://cfa-www.harvard.edu/iau/mpc.html  ISSN 1523-6714

                                   2006 RG7

Observations:
     K06R07G* C2006 09 15.17431 20 20 48.71 +08 19 53.1          18.9   ES005704
     K06R07G  C2006 09 15.18641 20 20 49.42 +08 19 11.5          18.9   ES005704
     K06R07G  C2006 09 15.19832 20 20 50.25 +08 18 29.7          19.3   ES005704
     K06R07G  C2006 09 15.21018 20 20 51.05 +08 17 47.8          19.2   ES005704
     K06R07G  C2006 09 15.22205 20 20 51.80 +08 17 07.6          19.3   ES005704
     K06R07G  C2006 09 16.08363 20 21 59.13 +07 26 52.4          19.5 R ES005734
     K06R07G  C2006 09 16.08698 20 21 59.37 +07 26 40.6          18.7 R ES005734
     K06R07G  C2006 09 16.09033 20 21 59.61 +07 26 28.4          18.8 R ES005734
     K06R07G  C2006 09 16.09369 20 21 59.86 +07 26 17.0          19.2 R ES005734
     K06R07G  C2006 09 16.09704 20 22 00.08 +07 26 05.7          18.8 R ES005734
     K06R07G  C2006 09 16.12348 20 22 01.78 +07 24 33.9          19.3 R ES005850
     K06R07G 5C2006 09 16.12951 20 22 02.91 +07 24 13.4          18.6 R ES005673
     K06R07G  C2006 09 16.13869 20 22 02.83 +07 23 40.5          19.1 R ES005850
     K06R07G 5C2006 09 16.14201 20 22 03.79 +07 23 29.1                 ES005673
     K06R07G 5C2006 09 16.14919 20 22 04.31 +07 23 03.3                 ES005673
     K06R07G  C2006 09 16.15395 20 22 03.90 +07 22 46.5          17.8 R ES005850
     K06R07G 5C2006 09 16.15486 20 22 04.72 +07 22 44.1                 ES005673
     K06R07G  C2006 09 16.31807 20 22 16.27 +07 13 10.8          18.1 R ES005854
     K06R07G  C2006 09 16.31902 20 22 16.44 +07 13 05.7          18.2 R ES005854
     K06R07G  C2006 09 16.32094 20 22 16.51 +07 12 59.1          18.2 R ES005854

Observer details:
673 Table Mountain Observatory, Wrightwood.  Observer J. Young.  0.61-m f/16
    Cassegrain + CCD.
704 Lincoln Laboratory ETS, New Mexico.  Observers M. Bezpalko, L. Manguso,
    D. Torres, R. Kracke, H. Love, G. Spitz, J. Kistler.  Measurers J. Stuart,
    J. Kommers.  1.0-m f/2.15 reflector + CCD.
734 Farpoint Observatory.  Observer G. Hug.  Measurer D. Tibbets.  0.7-m
    reflector + CCD.
850 Cordell-Lorenz Observatory, Sewanee.  Observers D. T. Durig, T. E. Stegall,
    J. L. Pitcher.  0.30-m f/5 Schmidt-Cassegrain + 1530x1020 CCD.
854 Sabino Canyon Observatory, Tucson.  Observer J. E. McGaha.  0.36-m f/10.0
    Schmidt-Cassegrain + CCD.

Orbital elements:
2006 RG7                                                 Earth MOID = 0.2299 AU
Epoch 2006 Sept. 22.0 TT = JDT 2454000.5                MPC
M 346.91936              (2000.0)            P               Q
n   0.40288712     Peri.  191.52528     +0.97568942     -0.21901608
a   1.8155733      Node   181.21351     +0.21872386     +0.97538950
e   0.3236257      Incl.   21.84823     +0.01378538     +0.02544153
P   2.45           H   19.2           G   0.15           U   9
Residuals in seconds of arc
060915 704  1.1+  0.2-    060916 734  0.1+  0.5-    060916 673  0.3+  0.5-
060915 704  0.3-  0.3+    060916 734  0.2+  0.1-    060916 850  0.0   0.2-
060915 704  0.2+  0.0     060916 734  0.0   0.3+    060916 673  0.4+  0.2+
060915 704  0.3+  0.6-    060916 850  0.7+  0.0     060916 854  0.3-  1.2+
060915 704  0.4-  0.6+    060916 673  0.3+  0.6+    060916 854  1.1+  0.6-
060916 734  0.0   0.0     060916 850  0.3+  0.1+    060916 854  0.0   0.4-
060916 734  0.0   0.1-    060916 673  0.1+  0.1+

Ephemeris:
2006 RG7                 a,e,i = 1.82, 0.32, 22                  q = 1.2280
Date    TT    R. A. (2000) Decl.     Delta      r     Elong.  Phase     V
2006 09 12    20 17.20   +11 20.6    0.369    1.283   132.0    35.7    19.0
2006 09 22    20 31.03   +01 33.7    0.359    1.261   128.9    38.3    19.0
2006 10 02    20 52.00   -08 20.6    0.367    1.244   124.0    41.8    19.1
2006 10 12    21 19.29   -17 03.6    0.390    1.233   118.5    45.4    19.3
2006 10 22    21 51.38   -23 45.3    0.428    1.228   113.2    48.2    19.6
2006 11 01    22 26.39   -28 11.0    0.476    1.230   108.6    49.9    19.9
2006 11 11    23 02.31   -30 32.4    0.531    1.238   104.8    50.7    20.2
2006 11 21    23 37.53   -31 11.0    0.592    1.252   101.8    50.6    20.4
2006 12 01    00 11.17   -30 29.0    0.658    1.271    99.4    49.9    20.7
2006 12 11    00 42.82   -28 47.2    0.726    1.296    97.3    48.9    20.9
2006 12 21    01 12.52   -26 21.8    0.798    1.325    95.5    47.7    21.1
2006 12 31    01 40.59   -23 26.1    0.874    1.358    93.8    46.3    21.3
2007 01 10    02 07.34   -20 11.6    0.953    1.394    92.1    44.8    21.5
2007 01 20    02 33.08   -16 47.1    1.037    1.433    90.2    43.4    21.7
2007 01 30    02 58.13   -13 20.4    1.126    1.473    88.3    41.9    21.9

Timothy B. Spahr             (C) Copyright 2006 MPC           M.P.E.C. 2006-S05

Read MPEC 2006-S04 Read MPEC 2006-S06


Our Web policy. Index to the CBAT/MPC/ICQ pages.


Valid HTML 4.01!